Regional Weather Roundup
Issued by NWS Sioux Falls, SD

Home | Current Version | Previous Version | Graphics & Text | Print | Product List | Glossary Off
Versions: 1 2 3 4 5 6 7 8 9 10 11 12 13 14 15 16 17 18 19 20 21 22 23 24 25 26 27 28 29 30 31 32 33 34 35 36 37 38 39 40 41 42 43 44 45 46 47 48 49 50

000
ASUS43 KFSD 171110
RWRFSD

WEATHER ROUNDUP FOR SE SOUTH DAKOTA/SW MINNESOTA/NW IOWA
NATIONAL WEATHER SERVICE SIOUX FALLS SD
500 AM CST TUE JAN 17 2017

NOTE: "FAIR" INDICATES FEW OR NO CLOUDS BELOW 12,000 FEET WITH NO
SIGNIFICANT WEATHER AND OR OBSTRUCTIONS TO VISIBILITY.


SDZ038>040-050-052>070-171200-
SOUTHEAST SOUTH DAKOTA

CITY           SKY/WX    TMP DP  RH WIND       PRES   REMARKS
BROOKINGS      CLOUDY     6   3  87 N3        29.98F
CHAMBERLAIN    CLOUDY    13  10  91 W7        30.04F WCI   2
HURON          CLOUDY     3   1  91 W3        30.03F
MADISON          N/A     10  10 100 NW8         N/A  WCI  -1
MITCHELL       CLOUDY    10   7  87 W5        30.05F WCI   2
SIOUX FALLS    CLOUDY    14  11  87 W6        30.01R FOG     WCI   5
WINNER         FAIR      17  12  80 W8        30.04F WCI   7
YANKTON        CLOUDY    16   9  73 CALM      30.06R
$$

MNZ071-072-080-081-089-090-097-098-171200-
SOUTHWEST MINNESOTA

CITY           SKY/WX    TMP DP  RH WIND       PRES   REMARKS
FAIRMONT       FOG       30  28  93 N15       29.94S VSB 1/2 WCI  19
JACKSON        CLOUDY    27  27 100 NW7       29.95R FOG     WCI  19
LUVERNE        CLOUDY    25  23  93 NW9       29.99R FOG     WCI  15
MARSHALL       CLOUDY    18  14  84 NW12      30.01R WCI   5
MONTEVIDEO     CLOUDY    18  16  93 N8        30.02S WCI   7
PIPESTONE      CLOUDY    25  23  93 NW8       29.97S FOG     WCI  16
REDWOOD FALLS  CLOUDY    24  21  88 NW15      29.98R FOG     WCI  11
TRACY          CLOUDY    21  20  96 NW9       29.99R WCI  10
WINDOM           N/A     25  25 100 NW8       29.95R FOG     WCI  16
WORTHINGTON    CLOUDY    26  24  92 NW12      29.96R FOG     WCI  16
$$

IAZ001>003-012>014-020>022-031-032-NEZ013-014-SDZ071-171200-
NORTHWEST IOWA

CITY           SKY/WX    TMP DP  RH WIND       PRES   REMARKS
CHEROKEE       CLOUDY    31  31 100 NW5       29.98R FOG     WCI  27
DENISON        CLOUDY    30  30 100 NW12      29.95S FOG     WCI  21
ESTHERVILLE    CLOUDY    29  29 100 N14       29.93R FOG     WCI  18
LE MARS        CLOUDY    23  23 100 W6G15     30.02R FOG     WCI  16
ORANGE CITY    CLOUDY    25  25 100 NW10      29.98R FOG     WCI  15
SHELDON        CLOUDY    30  30 100 NW10      29.96R FOG     WCI  21
SIOUX CITY     CLOUDY    22  18  85 NW17      30.03R WCI   8
SPENCER        CLOUDY    29  28  96 N14       29.96R FOG     WCI  18
STORM LAKE     CLOUDY    32  30  93 NW12      29.95R FOG     WCI  23
$$

ABBREVIATIONS USED IN REMARKS
   TC - TEMPERATURE IN CELSIUS
  WCI - WIND CHILL INDEX
   HX - HEAT INDEX
  VSB - VISIBILITY





USA.gov is the U.S. government's official web portal to all federal, state and local government web resources and services.